[[{"header":{"parameterUnit":"m.s-1","parameterCategory":1,"la1":30.2991,"la2":30.254,"lo1":-89.0895,"lo2":-89.0444,"dy":0.0017,"dx":0.0017,"nx":28,"ny":28,"refTime":"2023-10-21T09:00:00:Z","depth":0,"parameterNumber":2,"parameterNumberName":"U-component_of_WINDS"},"data":[0,0,0,0,0,0,0,0,0,0,0,0,0,0,0,0,0,0,0,0,0,0,0,0,0,0,0,0,0,0,0,0,0,0,0,0,0,0,0,0,0,0,0,0,0,0,0,0,0,0,0,0,0,0,0,0,0,0,0.4069,0.407,0,0.4203,0.4205,0.4206,0.4254,0.4254,0.4253,0.4253,0.4394,0.4398,0.4402,0,0,0,0,0,0,0,0,0,0,0,0,0,0.3856,0.386,0.4069,0.407,0.4072,0.4203,0.4205,0.4207,0.4254,0.4254,0.4253,0.4252,0.4393,0.4398,0.4403,0,0,0,0,0,0,0,0,0,0,0,0,0,0.3965,0.3861,0.4068,0.4111,0.4117,0.4202,0.4205,0.4207,0.4254,0.4254,0.4253,0.4252,0.4391,0.4397,0.4404,0.4458,0,0,0.4423,0.4426,0,0,0,0,0,0,0,0,0.3959,0.3973,0.4103,0.4109,0.4115,0.4211,0.4182,0.4291,0.4255,0.4202,0.4253,0.4252,0.4334,0.4345,0.4372,0.4464,0.447,0.4423,0.4427,0.443,0.4432,0,0,0,0,0,0,0,0.3951,0.3967,0.4122,0.4105,0.4112,0.4125,0.414,0.4203,0.4271,0.4207,0.421,0.4226,0.4337,0.4366,0.4376,0.4472,0.4423,0.4429,0.4433,0.4435,0.4614,0.4615,0,0,0,0,0,0,0.3936,0.3961,0.4118,0.4126,0.4033,0.4129,0.4146,0.4181,0.427,0.4283,0.4226,0.4227,0.4355,0.4368,0.4381,0.4449,0.443,0.4436,0.444,0.4613,0.4614,0.4615,0,0,0,0,0,0,0.3931,0.395,0.4112,0.4044,0.4066,0.4134,0.4173,0.4184,0.4213,0.4285,0.4297,0.4243,0.4355,0.4372,0.4438,0.4455,0.4439,0.4445,0.4612,0.4614,0.4615,0.4586,0,0,0,0,0,0,0.3925,0.3948,0.3968,0.4045,0.407,0.4166,0.4174,0.4187,0.4223,0.4226,0.4304,0.4316,0.4356,0.4428,0.4444,0.4463,0.445,0.4611,0.4613,0.4614,0.4586,0.4586,0.4587,0,0,0,0,0,0.3917,0.3956,0.3969,0.3988,0.4097,0.4167,0.4181,0.4225,0.4224,0.4246,0.4292,0.4314,0.445,0.4434,0.4453,0.4474,0.461,0.4612,0.4614,0.4586,0.4586,0.4587,0,0,0,0,0,0,0.3882,0.3967,0.3982,0.4047,0.4099,0.4175,0.4203,0.4225,0.4279,0.428,0.4333,0.4351,0.4412,0.445,0.443,0.453,0.4531,0.4537,0.4503,0.4504,0.4505,0.4495,0.4455,0,0,0,0,0,0.3881,0.393,0.4002,0.4052,0.4077,0.4135,0.4168,0.4197,0.4254,0.4276,0.4327,0.4383,0.4438,0.4473,0.4528,0.4591,0.4609,0.4615,0.4616,0.4616,0.462,0.4655,0.4659,0.4622,0.4622,0.4622,0,0,0.3881,0.3933,0.3961,0.4046,0.409,0.414,0.4154,0.4207,0.4244,0.4285,0.4349,0.4388,0.4454,0.4518,0.4549,0.4551,0.4634,0.4618,0.4618,0.4623,0.4658,0.4661,0.4664,0.4624,0.4624,0.4623,0,0,0.3906,0.3951,0.3996,0.4039,0.4105,0.4143,0.4154,0.4226,0.4253,0.4318,0.435,0.4396,0.449,0.4535,0.457,0.4609,0.4631,0.4626,0.4629,0.4662,0.4665,0.4668,0.4682,0.4686,0.463,0.463,0.463,0,0.3898,0.3973,0.4018,0.4068,0.4104,0.4141,0.4188,0.4228,0.4309,0.4333,0.4335,0.4453,0.4499,0.4574,0.4583,0.4611,0.4625,0.4618,0.4661,0.4664,0.4668,0.4681,0.4686,0.4629,0.4629,0.4629,0.463,0,0.3959,0.4011,0.4041,0.4115,0.4155,0.4203,0.4255,0.429,0.4316,0.4354,0.4419,0.4476,0.4542,0.4562,0.4589,0.464,0.464,0.465,0.4653,0.4669,0.4683,0.4688,0.4628,0.4628,0.4628,0.4629,0,0,0.3967,0.4064,0.4074,0.4108,0.4182,0.4224,0.4273,0.4337,0.4365,0.4419,0.4463,0.454,0.455,0.459,0.4621,0.4651,0.4677,0.4658,0.466,0.4659,0.4737,0.4729,0.4734,0.4692,0.4693,0.4694,0.4732,0,0.4001,0.4091,0.4131,0.4203,0.4251,0.4286,0.433,0.438,0.4417,0.4464,0.4505,0.4559,0.4568,0.4592,0.4622,0.4668,0.4694,0.4666,0.4733,0.4735,0.4716,0.4741,0.4733,0.4765,0.4737,0.4738,0.4739,0,0.4054,0.4105,0.4181,0.4248,0.427,0.4308,0.4369,0.4413,0.4471,0.4495,0.4538,0.4568,0.4622,0.462,0.4695,0.4675,0.4705,0.4731,0.4734,0.4742,0.4738,0.475,0.4777,0.4782,0.4748,0.4747,0.4747,0,0.405,0.414,0.4196,0.4224,0.4304,0.433,0.4364,0.4421,0.4456,0.451,0.4533,0.4592,0.4625,0.467,0.4715,0.471,0.4786,0.4788,0.4808,0.4807,0.4823,0.4822,0.4855,0.4843,0.4843,0.4842,0.4842,0,0.4084,0.4129,0.4195,0.423,0.4281,0.4328,0.4377,0.4415,0.4465,0.4508,0.4542,0.4582,0.4639,0.4686,0.4722,0.4778,0.4793,0.4815,0.4824,0.4812,0.4809,0.4832,0.4831,0.4844,0.4843,0.4843,0.4843,0,0.409,0.4136,0.42,0.4269,0.4288,0.4322,0.4382,0.4418,0.4455,0.4509,0.4524,0.4584,0.4641,0.469,0.4766,0.479,0.4848,0.4859,0.4828,0.4833,0.485,0.4847,0.49,0.4909,0.489,0.489,0.489,0,0.4108,0.4143,0.4216,0.4246,0.428,0.4329,0.4364,0.4411,0.4447,0.4514,0.4541,0.46,0.465,0.4739,0.479,0.4848,0.4861,0.4875,0.487,0.4856,0.486,0.4857,0.4861,0.4875,0.4875,0.4875,0.4875,0,0.4136,0.4157,0.4206,0.4262,0.4303,0.435,0.4398,0.4421,0.4477,0.4515,0.4573,0.4611,0.4687,0.4746,0.4809,0.4846,0.487,0.4876,0.4884,0.4872,0.4852,0.4862,0.4828,0.4875,0.4875,0.4875,0.4875,0.4875,0.4149,0.4181,0.4236,0.4289,0.433,0.4374,0.441,0.4451,0.45,0.4564,0.4589,0.4648,0.4704,0.4791,0.4827,0.4875,0.4878,0.489,0.4893,0.4895,0.4892,0.4844,0.4886,0.4886,0.4887,0.4887,0.4887,0,0.4178,0.4215,0.4263,0.4328,0.437,0.4387,0.4441,0.4475,0.4525,0.4575,0.4622,0.4688,0.4745,0.4799,0.4858,0.4885,0.4898,0.4899,0.4898,0.4906,0.4886,0.4873,0.4888,0.4888,0.4888,0.4888,0.4888,0.4888,0.4198,0.4253,0.4279,0.4355,0.4392,0.4449,0.4478,0.4518,0.4558,0.4629,0.4676,0.471,0.4762,0.4824,0.4877,0.4891,0.4912,0.491,0.4927,0.4908,0.4907,0.4906,0.4895,0.4914,0.4914,0.4943,0.4944,0.4944]},{"header":{"parameterUnit":"m.s-1","parameterCategory":1,"la1":30.2991,"la2":30.254,"lo1":-89.0895,"lo2":-89.0444,"dy":0.0017,"dx":0.0017,"nx":28,"ny":28,"refTime":"2023-10-21T09:00:00:Z","depth":0,"parameterNumber":3,"parameterNumberName":"V-component_of_WINDS"},"data":[0,0,0,0,0,0,0,0,0,0,0,0,0,0,0,0,0,0,0,0,0,0,0,0,0,0,0,0,0,0,0,0,0,0,0,0,0,0,0,0,0,0,0,0,0,0,0,0,0,0,0,0,0,0,0,0,0,0,2.2326,2.2327,0,2.2337,2.2337,2.2337,2.2322,2.2322,2.2321,2.2321,2.233,2.2331,2.2331,0,0,0,0,0,0,0,0,0,0,0,0,0,2.2291,2.2292,2.2326,2.2327,2.2327,2.2337,2.2337,2.2337,2.2322,2.2322,2.2321,2.232,2.233,2.2331,2.2332,0,0,0,0,0,0,0,0,0,0,0,0,0,2.2305,2.2292,2.2326,2.232,2.232,2.2337,2.2337,2.2338,2.2323,2.2322,2.2321,2.232,2.2329,2.2331,2.2332,2.2355,0,0,2.2335,2.2336,0,0,0,0,0,0,0,0,2.2304,2.2306,2.2321,2.2321,2.232,2.2328,2.2328,2.2343,2.2323,2.2322,2.2321,2.232,2.233,2.2331,2.2335,2.2355,2.2355,2.2335,2.2336,2.2336,2.2337,0,0,0,0,0,0,0,2.2303,2.2305,2.2331,2.2321,2.2321,2.2317,2.2318,2.2331,2.233,2.2322,2.2321,2.2322,2.2329,2.2333,2.2335,2.2355,2.2335,2.2336,2.2337,2.2337,2.2395,2.2396,0,0,0,0,0,0,2.2303,2.2305,2.233,2.2331,2.231,2.2318,2.2319,2.2326,2.233,2.233,2.2323,2.2321,2.2332,2.2333,2.2335,2.2362,2.2336,2.2337,2.2338,2.2394,2.2395,2.2396,0,0,0,0,0,0,2.2302,2.2305,2.233,2.2318,2.232,2.2319,2.2327,2.2327,2.2331,2.2331,2.233,2.2327,2.2331,2.2333,2.235,2.2362,2.2338,2.2339,2.2393,2.2395,2.2396,2.2416,0,0,0,0,0,0,2.2301,2.2305,2.2314,2.2318,2.2321,2.2345,2.2328,2.2328,2.2333,2.2331,2.2335,2.2335,2.2331,2.2348,2.2351,2.2363,2.234,2.2392,2.2394,2.2395,2.2415,2.2418,2.2421,0,0,0,0,0,2.23,2.2319,2.2315,2.2318,2.2332,2.2346,2.2348,2.2344,2.2334,2.2343,2.2343,2.2334,2.236,2.235,2.2353,2.2366,2.2391,2.2393,2.2395,2.2413,2.2418,2.2421,0,0,0,0,0,0,2.2316,2.2319,2.2315,2.2336,2.2341,2.2343,2.2354,2.2348,2.2356,2.2354,2.2348,2.2349,2.2367,2.2368,2.2356,2.2388,2.2374,2.2377,2.2387,2.2391,2.2394,2.2394,2.2341,0,0,0,0,0,2.2322,2.2334,2.2336,2.2354,2.2357,2.2355,2.2361,2.2357,2.2362,2.2364,2.2365,2.237,2.2379,2.2385,2.2393,2.2415,2.2415,2.2425,2.2428,2.2431,2.2433,2.2445,2.2449,2.2403,2.2403,2.2403,0,0,2.2335,2.2338,2.2345,2.2357,2.2361,2.2372,2.2357,2.237,2.2378,2.2366,2.2382,2.2383,2.2387,2.2406,2.2415,2.2408,2.2446,2.2433,2.2436,2.2436,2.2447,2.2452,2.2456,2.2404,2.2404,2.2404,0,0,2.2363,2.2367,2.2383,2.2387,2.2393,2.2392,2.2395,2.2399,2.24,2.2416,2.2407,2.2416,2.2432,2.2436,2.244,2.247,2.2463,2.2473,2.2491,2.2502,2.2506,2.2509,2.252,2.2524,2.2475,2.2475,2.2475,0,2.2378,2.2395,2.2391,2.2405,2.241,2.2401,2.2416,2.242,2.2428,2.2432,2.2424,2.2444,2.2446,2.2466,2.2474,2.2477,2.2481,2.2473,2.2505,2.2509,2.2511,2.2522,2.2526,2.2477,2.2477,2.2476,2.2476,0,2.2413,2.2425,2.2437,2.2446,2.2453,2.2467,2.2465,2.2472,2.2468,2.2468,2.2484,2.2487,2.2496,2.25,2.2496,2.2519,2.2515,2.2506,2.2492,2.2517,2.2527,2.2531,2.2478,2.2478,2.2478,2.2477,0,0,2.2452,2.2459,2.2463,2.2467,2.2473,2.2482,2.2496,2.2506,2.2512,2.2518,2.2529,2.2543,2.2535,2.254,2.2536,2.2546,2.257,2.2536,2.2536,2.2542,2.2596,2.2603,2.2607,2.2565,2.2566,2.2566,2.2596,0,2.2481,2.2506,2.2503,2.2526,2.2537,2.2528,2.254,2.2545,2.2545,2.2554,2.2554,2.2564,2.2553,2.2556,2.2565,2.2565,2.258,2.2563,2.2575,2.2576,2.2574,2.2612,2.2619,2.2647,2.2599,2.26,2.26,0,2.2518,2.2526,2.2551,2.2555,2.256,2.2571,2.2579,2.2588,2.2593,2.2592,2.2598,2.2592,2.2606,2.2591,2.261,2.2598,2.2603,2.2603,2.2604,2.2605,2.259,2.2614,2.2655,2.266,2.2606,2.2606,2.2605,0,2.2544,2.2561,2.2578,2.2582,2.2587,2.2595,2.2598,2.2602,2.2608,2.2615,2.2619,2.2627,2.2632,2.2638,2.2635,2.2625,2.2654,2.2639,2.2653,2.2653,2.266,2.2659,2.2702,2.2663,2.2663,2.2663,2.2663,0,2.2576,2.2592,2.259,2.26,2.2618,2.2614,2.263,2.2632,2.2636,2.2646,2.2639,2.2648,2.2643,2.2653,2.265,2.2666,2.2668,2.2667,2.2666,2.2668,2.2668,2.2671,2.2669,2.2664,2.2664,2.2663,2.2663,0,2.2608,2.2607,2.2626,2.263,2.2631,2.2644,2.2647,2.2656,2.2656,2.2669,2.2672,2.2671,2.2682,2.2679,2.269,2.2689,2.2709,2.2705,2.2707,2.2706,2.2721,2.2719,2.2767,2.2773,2.273,2.273,2.273,0,2.2629,2.2641,2.2647,2.2653,2.2657,2.2668,2.2674,2.267,2.2677,2.2684,2.2693,2.2703,2.2711,2.2728,2.2728,2.2736,2.2733,2.2749,2.2734,2.2736,2.2734,2.2733,2.2734,2.2752,2.2753,2.2753,2.2754,0,2.2666,2.2665,2.2675,2.2685,2.2692,2.27,2.2706,2.2712,2.2709,2.2717,2.2728,2.2734,2.2746,2.2756,2.2764,2.2766,2.2759,2.2758,2.2762,2.2764,2.2765,2.2765,2.2715,2.2757,2.2757,2.2757,2.2756,2.2756,2.2693,2.2703,2.2709,2.272,2.2725,2.2731,2.2741,2.2742,2.2751,2.2761,2.2758,2.2771,2.2776,2.2786,2.2789,2.2798,2.2792,2.2798,2.2799,2.28,2.2802,2.2763,2.28,2.28,2.2799,2.2799,2.2799,0,2.273,2.2733,2.2744,2.2753,2.2762,2.2756,2.2763,2.277,2.2782,2.2787,2.2795,2.2808,2.2817,2.2818,2.2827,2.2835,2.2832,2.2837,2.2837,2.2837,2.2807,2.2803,2.284,2.2839,2.2839,2.2839,2.2839,2.2839,2.275,2.2767,2.2767,2.2787,2.279,2.2803,2.2807,2.2813,2.2817,2.2832,2.284,2.2841,2.2845,2.2854,2.2863,2.2863,2.2866,2.2873,2.2872,2.2843,2.2839,2.2836,2.2832,2.2874,2.2874,2.2901,2.2902,2.2902]}]]